Weather History for Champaign, IL

Change the Weather History Date:

Wednesday, August 13, 2014

  Actual Average Record
Temperature  
Mean Temperature 66 °F 72 °F  
Max Temperature 79 °F 83 °F 94 °F (2010)
Min Temperature 53 °F 62 °F 48 °F (2004)
Degree Days  
Heating Degree Days 0 0  
Month to date heating degree days 0 0  
Since 1 June heating degree days 7 19  
Since 1 July heating degree days 7 2  
Cooling Degree Days 1 8  
Month to date cooling degree days 76 104  
Year to date cooling degree days 668 701  
Since 1 June cooling degree days 516 609  
Growing Degree Days 16 (Base 50)    
Moisture  
Dew Point 58 °F    
Average Humidity 75    
Maximum Humidity 100    
Minimum Humidity 50    
Precipitation  
Precipitation 0.00 in 0.11 in 2.21 in (1999)
Month to date precipitation 0.50 1.21  
Year to date precipitation 27.36 24.88  
Sea Level Pressure  
Sea Level Pressure 30.05 in    
Wind  
Wind Speed 7 mph (West)    
Max Wind Speed 13 mph    
Max Gust Speed 16 mph    
Visibility 10 miles    
Events      
T = Trace of Precipitation, MM = Missing Value Source: NWS Daily Summary

Daily Weather History Graph

Daily Weather History Graph

Search for Another Location

Airport:

Trip Planner

Search our weather history database for the weather conditions in past years. The results will help you decide how hot, cold, wet, or windy it might be!

Date:

Astronomy

Aug. 13, 2014 Rise Set
Actual Time 6:02 AM CDT 7:52 PM CDT
Civil Twilight 5:33 AM CDT 8:21 PM CDT
Nautical Twilight 4:58 AM CDT 8:56 PM CDT
Astronomical Twilight 4:19 AM CDT 9:34 PM CDT
Moon 9:37 PM CDT (8/13) 9:30 AM CDT (8/13)
Length of Visible Light 14h 48m
Length of Day
13h 49m
Waning Gibbous, 87% of the Moon is Illuminated
Aug 13
Waning Gibbous
Aug 17
Last Quarter
Aug 25
New
Sep 2
First Quarter
Sep 8
Full

Hourly Weather History & Observations

Time (CDT) Temp. Dew Point Humidity Pressure Visibility Wind Dir Wind Speed Gust Speed Precip Events Conditions
1:53 AM 57.9 °F 55.9 °F 93% 30.01 in 10.0 mi WNW 4.6 mph - N/A   Mostly Cloudy
2:53 AM 59.0 °F 57.0 °F 93% 30.01 in 10.0 mi West 5.8 mph - N/A   Overcast
3:53 AM 57.9 °F 55.0 °F 90% 30.02 in 10.0 mi West 4.6 mph - N/A   Scattered Clouds
4:53 AM 55.9 °F 54.0 °F 93% 30.02 in 10.0 mi West 6.9 mph - N/A   Scattered Clouds
5:53 AM 54.0 °F 53.1 °F 97% 30.04 in 10.0 mi West 4.6 mph - N/A   Clear
7:53 AM 60.1 °F 57.0 °F 90% 30.08 in 10.0 mi WNW 4.6 mph - N/A   Clear
8:53 AM 66.0 °F 57.9 °F 75% 30.09 in 10.0 mi West 4.6 mph - N/A   Clear
10:53 AM 73.9 °F 57.9 °F 57% 30.09 in 10.0 mi WNW 8.1 mph - N/A   Clear
11:53 AM 75.9 °F 57.0 °F 52% 30.08 in 10.0 mi NW 10.4 mph - N/A   Clear
12:53 PM 75.9 °F 55.9 °F 50% 30.08 in 10.0 mi West 8.1 mph - N/A   Clear
1:53 PM 77.0 °F 57.0 °F 50% 30.07 in 10.0 mi WNW 8.1 mph - N/A   Clear
3:53 PM 79.0 °F 60.1 °F 52% 30.06 in 10.0 mi NW 8.1 mph - N/A   Clear
4:53 PM 78.1 °F 61.0 °F 56% 30.05 in 10.0 mi WNW 12.7 mph - N/A   Partly Cloudy
5:53 PM 77.0 °F 61.0 °F 58% 30.04 in 10.0 mi West 9.2 mph - N/A   Clear
6:53 PM 75.0 °F 62.1 °F 64% 30.04 in 10.0 mi West 6.9 mph - N/A   Clear
7:53 PM 68.0 °F 62.1 °F 81% 30.04 in 10.0 mi WSW 6.9 mph - N/A   Clear
8:53 PM 66.0 °F 62.1 °F 87% 30.04 in 10.0 mi WSW 6.9 mph - N/A   Clear
9:53 PM 63.0 °F 60.1 °F 90% 30.05 in 10.0 mi WSW 5.8 mph - N/A   Clear
11:53 PM 62.1 °F 59.0 °F 90% 30.05 in 10.0 mi WSW 6.9 mph - N/A   Scattered Clouds